This is the latest recevied weather packets stored in our database for station/object PE1RXF-13. If no packets are shown the sender has not sent any weather packets the latest 10 day(s).
| Time | Temp. | Humidity | Pressure | Rain* | Wind** | Luminosity | Snow |
|---|---|---|---|---|---|---|---|
| 1788210074 | 15° C | 99% | 1012.5 hPa | 0 mm | - | 0 W/m² | - |
| 1788208971 | 15° C | 99% | 1012.3 hPa | 0 mm | - | 0 W/m² | - |
| 1788207869 | 15° C | 99% | 1012.1 hPa | 0 mm | - | 0 W/m² | - |
| 1788206765 | 15° C | 99% | 1011.8 hPa | 0 mm | - | 0 W/m² | - |
| 1788205662 | 15° C | 99% | 1011.5 hPa | 0 mm | - | 0 W/m² | - |
| 1788203456 | 15.56° C | 99% | 1011 hPa | 0 mm | - | 0 W/m² | - |
| 1788202353 | 15.56° C | 99% | 1010.6 hPa | 0 mm | - | 0 W/m² | - |
| 1788201251 | 15.56° C | 99% | 1010.3 hPa | 0 mm | - | 0 W/m² | - |
| 1788200148 | 16.11° C | 99% | 1010 hPa | 0 mm | - | 2 W/m² | - |
| 1788199044 | 16.11° C | 99% | 1009.7 hPa | 0 mm | - | 5 W/m² | - |
| 1788197941 | 16.67° C | 99% | 1009.4 hPa | 0 mm | - | 8 W/m² | - |
| 1788196839 | 17.22° C | 99% | 1009.3 hPa | 0 mm | - | 11 W/m² | - |
| 1788195735 | 17.22° C | 99% | 1009.1 hPa | 0 mm | - | 22 W/m² | - |
| 1788194632 | 17.22° C | 99% | 1008.8 hPa | 0 mm | - | 12 W/m² | - |
| 1788193529 | 17.78° C | 99% | 1008.7 hPa | 0 mm | - | 38 W/m² | - |
| 1788192427 | 17.22° C | 99% | 1008.6 hPa | 0 mm | - | 24 W/m² | - |
| 1788191323 | 17.78° C | 99% | 1008.4 hPa | 0 mm | - | 31 W/m² | - |
| 1788190220 | 17.78° C | 98% | 1008.3 hPa | 0 mm | - | 48 W/m² | - |
| 1788189117 | 18.89° C | 93% | 1008.2 hPa | 0 mm | - | 52 W/m² | - |
| 1788188015 | 18.89° C | 99% | 1007.7 hPa | 0 mm | - | 65 W/m² | - |
| 1788185809 | 18.89° C | 91% | 1007.6 hPa | 0 mm | - | 28 W/m² | - |
| 1788184705 | 21.11° C | 84% | 1007.6 hPa | 0 mm | - | 119 W/m² | - |
| 1788183602 | 21.11° C | 90% | 1007.4 hPa | 0 mm | - | 165 W/m² | - |
| 1788182499 | 20.56° C | 96% | 1007.3 hPa | 0 mm | - | 140 W/m² | - |
| 1788181396 | 15.56° C | 99% | 1007.3 hPa | 0 mm | - | 25 W/m² | - |
* Rain latest hour (hover to see other rain measurements)
** Current wind speed in m/s (hover to see current wind gust speed)